When you browse on this site, cookies collect data to enhance your experience and personalize the content and advertising you see.
Visit our Privacy Policy to learn more. By continuing to use the site, you agree to this use of cookies and data.
  • In Czech Republic
  • List of Countries
  • For 7 days
  • Water Temperature
  • Satellite Maps
  • Weather Map
  • Weather Widgets
  • user-avatar
    Login

    Hourly Weather Saskatoon

    Today, 21 June, Friday

    Time Temperature Precipitation Wind Pressure Humidity
    00:00 +10°C° 0 mm 1 mps 711 mmHg 93%
    01:00 +9°C° 0 mm 1 mps 711 mmHg 92%
    02:00 +9°C° 0 mm 1 mps 712 mmHg 92%
    03:00 +9°C° 0 mm 1 mps 712 mmHg 92%
    04:00 +9°C° 0 mm 1 mps 712 mmHg 92%
    05:00 +10°C° 0 mm 1 mps 713 mmHg 92%
    06:00 +11°C° 0 mm 1 mps 713 mmHg 87%
    07:00 +13°C° 0 mm 1 mps 713 mmHg 82%
    08:00 +15°C° 0 mm 2 mps 714 mmHg 76%
    09:00 +16°C° 0 mm 2 mps 714 mmHg 71%
    10:00 +17°C° 0 mm 3 mps 714 mmHg 65%
    11:00 +18°C° 0 mm 4 mps 713 mmHg 60%
    12:00 +18°C° 0.3 mm 4 mps 713 mmHg 63%
    13:00 +19°C° 0.3 mm 5 mps 713 mmHg 67%
    14:00 +19°C° 0.3 mm 5 mps 713 mmHg 71%
    15:00 +17°C° 0.9 mm 4 mps 713 mmHg 76%
    16:00 +16°C° 0.9 mm 3 mps 712 mmHg 82%
    17:00 +15°C° 0.9 mm 2 mps 712 mmHg 88%
    18:00 +13°C° 0.5 mm 3 mps 712 mmHg 89%
    19:00 +13°C° 0.5 mm 3 mps 712 mmHg 90%
    20:00 +12°C° 0.5 mm 4 mps 711 mmHg 91%
    21:00 +12°C° 0.1 mm 5 mps 711 mmHg 91%
    22:00 +13°C° 0.1 mm 6 mps 711 mmHg 91%
    23:00 +12°C° 0.1 mm 7 mps 710 mmHg 91%

    Tomorrow, 22 June, Saturday

    Time Temperature Precipitation Wind Pressure Humidity
    00:00 +11°C° 0.6 mm 7 mps 710 mmHg 91%
    01:00 +11°C° 0.6 mm 7 mps 709 mmHg 91%
    02:00 +11°C° 0.6 mm 8 mps 708 mmHg 91%
    03:00 +11°C° 2.2 mm 8 mps 708 mmHg 92%
    04:00 +11°C° 2.2 mm 8 mps 708 mmHg 93%
    05:00 +11°C° 2.2 mm 8 mps 707 mmHg 94%
    06:00 +11°C° 1.9 mm 8 mps 707 mmHg 94%
    07:00 +11°C° 1.9 mm 7 mps 707 mmHg 94%
    08:00 +11°C° 1.9 mm 7 mps 707 mmHg 95%
    09:00 +11°C° 0.6 mm 6 mps 707 mmHg 93%
    10:00 +13°C° 0.6 mm 5 mps 707 mmHg 91%
    11:00 +13°C° 0.6 mm 3 mps 707 mmHg 89%
    12:00 +14°C° 0.7 mm 5 mps 707 mmHg 86%
    13:00 +15°C° 0.7 mm 6 mps 707 mmHg 83%
    14:00 +16°C° 0.7 mm 7 mps 707 mmHg 80%
    15:00 +16°C° 0.3 mm 7 mps 707 mmHg 81%
    16:00 +15°C° 0.3 mm 7 mps 707 mmHg 81%
    17:00 +15°C° 0.3 mm 6 mps 707 mmHg 81%
    18:00 +14°C° 0.2 mm 6 mps 707 mmHg 84%
    19:00 +14°C° 0.2 mm 6 mps 707 mmHg 87%
    20:00 +13°C° 0.2 mm 5 mps 707 mmHg 90%
    21:00 +12°C° 0 mm 5 mps 707 mmHg 91%
    22:00 +12°C° 0 mm 5 mps 707 mmHg 93%
    23:00 +11°C° 0 mm 4 mps 707 mmHg 94%

    Day after tomorrow, 23 June, Sunday

    Time Temperature Precipitation Wind Pressure Humidity
    00:00 +11°C° 0 mm 4 mps 707 mmHg 94%
    01:00 +11°C° 0 mm 4 mps 707 mmHg 94%
    02:00 +11°C° 0 mm 4 mps 707 mmHg 94%
    03:00 +11°C° 0 mm 4 mps 707 mmHg 95%
    04:00 +9°C° 0 mm 5 mps 707 mmHg 95%
    05:00 +9°C° 0 mm 5 mps 707 mmHg 95%
    06:00 +12°C° 0 mm 5 mps 707 mmHg 90%
    07:00 +13°C° 0 mm 5 mps 708 mmHg 85%
    08:00 +15°C° 0 mm 5 mps 708 mmHg 80%
    09:00 +16°C° 0.1 mm 5 mps 708 mmHg 75%
    10:00 +17°C° 0.1 mm 5 mps 708 mmHg 70%
    11:00 +20°C° 0.1 mm 5 mps 708 mmHg 65%
    12:00 +20°C° 0.5 mm 5 mps 708 mmHg 63%
    13:00 +21°C° 0.5 mm 5 mps 708 mmHg 61%
    14:00 +22°C° 0.5 mm 5 mps 707 mmHg 59%
    15:00 +22°C° 0.4 mm 5 mps 707 mmHg 61%
    16:00 +22°C° 0.4 mm 5 mps 707 mmHg 62%
    17:00 +21°C° 0.4 mm 5 mps 707 mmHg 64%
    18:00 +20°C° 0.1 mm 4 mps 707 mmHg 69%
    19:00 +19°C° 0.1 mm 3 mps 707 mmHg 75%
    20:00 +17°C° 0.1 mm 2 mps 706 mmHg 81%
    21:00 +17°C° 0 mm 2 mps 706 mmHg 83%
    22:00 +16°C° 0 mm 2 mps 706 mmHg 86%
    23:00 +15°C° 0 mm 2 mps 706 mmHg 89%

    24 June, Monday

    Time Temperature Precipitation Wind Pressure Humidity
    00:00 +14°C° 0 mm 2 mps 706 mmHg 90%
    01:00 +14°C° 0 mm 2 mps 706 mmHg 91%
    02:00 +13°C° 0 mm 2 mps 706 mmHg 92%
    03:00 +13°C° 0 mm 2 mps 706 mmHg 92%
    04:00 +13°C° 0 mm 2 mps 706 mmHg 92%
    05:00 +13°C° 0 mm 2 mps 707 mmHg 92%
    06:00 +15°C° 0 mm 2 mps 707 mmHg 86%
    07:00 +17°C° 0 mm 3 mps 707 mmHg 80%
    08:00 +19°C° 0 mm 3 mps 707 mmHg 74%
    09:00 +20°C° 0.3 mm 3 mps 707 mmHg 69%
    10:00 +21°C° 0.3 mm 3 mps 707 mmHg 65%
    11:00 +22°C° 0.3 mm 3 mps 707 mmHg 61%
    12:00 +24°C° 0 mm 3 mps 707 mmHg 58%
    13:00 +23°C° 0 mm 4 mps 707 mmHg 56%
    14:00 +23°C° 0 mm 4 mps 707 mmHg 53%
    15:00 +23°C° 0.3 mm 4 mps 707 mmHg 58%
    16:00 +22°C° 0.3 mm 4 mps 707 mmHg 62%
    17:00 +21°C° 0.3 mm 4 mps 707 mmHg 67%
    18:00 +20°C° 0.7 mm 4 mps 707 mmHg 72%
    19:00 +18°C° 0.7 mm 4 mps 706 mmHg 78%
    20:00 +17°C° 0.7 mm 3 mps 706 mmHg 83%
    21:00 +16°C° 0.3 mm 3 mps 707 mmHg 85%
    22:00 +16°C° 0.3 mm 3 mps 707 mmHg 88%
    23:00 +15°C° 0.3 mm 2 mps 707 mmHg 90%

    25 June, Tuesday

    Time Temperature Precipitation Wind Pressure Humidity
    00:00 +15°C° 0 mm 2 mps 707 mmHg 90%
    01:00 +14°C° 0 mm 2 mps 707 mmHg 90%
    02:00 +13°C° 0 mm 2 mps 707 mmHg 91%
    03:00 +13°C° 0 mm 2 mps 708 mmHg 91%
    04:00 +12°C° 0 mm 3 mps 708 mmHg 91%
    05:00 +11°C° 0 mm 3 mps 708 mmHg 92%
    06:00 +12°C° 0 mm 3 mps 709 mmHg 89%
    07:00 +13°C° 0 mm 3 mps 709 mmHg 87%
    08:00 +14°C° 0 mm 3 mps 709 mmHg 84%
    09:00 +16°C° 0.1 mm 3 mps 710 mmHg 80%
    10:00 +17°C° 0.1 mm 3 mps 710 mmHg 77%
    11:00 +18°C° 0.1 mm 3 mps 710 mmHg 73%
    12:00 +18°C° 0.2 mm 3 mps 710 mmHg 71%
    13:00 +19°C° 0.2 mm 3 mps 711 mmHg 69%
    14:00 +19°C° 0.2 mm 3 mps 711 mmHg 66%
    15:00 +19°C° 0 mm 2 mps 711 mmHg 64%
    16:00 +19°C° 0 mm 2 mps 711 mmHg 63%
    17:00 +20°C° 0 mm 2 mps 711 mmHg 61%
    18:00 +18°C° 0 mm 2 mps 711 mmHg 65%
    19:00 +17°C° 0 mm 2 mps 712 mmHg 70%
    20:00 +16°C° 0 mm 1 mps 712 mmHg 75%
    21:00 +15°C° 0 mm 1 mps 712 mmHg 77%
    22:00 +14°C° 0 mm 1 mps 713 mmHg 80%
    23:00 +13°C° 0 mm 1 mps 713 mmHg 83%

    26 June, Wednesday

    Time Temperature Precipitation Wind Pressure Humidity
    00:00 +13°C° 0 mm 1 mps 713 mmHg 84%
    01:00 +13°C° 0 mm 1 mps 713 mmHg 85%
    02:00 +12°C° 0 mm 1 mps 714 mmHg 87%
    03:00 +13°C° 0 mm 1 mps 714 mmHg 86%
    04:00 +12°C° 0 mm 0 mps 714 mmHg 86%
    05:00 +12°C° 0 mm 0 mps 715 mmHg 85%
    06:00 +15°C° 0 mm 1 mps 715 mmHg 79%
    07:00 +18°C° 0 mm 1 mps 716 mmHg 73%
    08:00 +19°C° 0 mm 1 mps 716 mmHg 66%
    09:00 +20°C° 0 mm 1 mps 717 mmHg 62%
    10:00 +20°C° 0 mm 2 mps 717 mmHg 57%
    11:00 +23°C° 0 mm 2 mps 717 mmHg 52%
    12:00 +23°C° 0 mm 1 mps 717 mmHg 50%
    13:00 +24°C° 0 mm 1 mps 717 mmHg 48%
    14:00 +25°C° 0 mm 1 mps 717 mmHg 46%
    15:00 +25°C° 0 mm 1 mps 717 mmHg 47%
    16:00 +25°C° 0 mm 2 mps 718 mmHg 49%
    17:00 +24°C° 0 mm 2 mps 718 mmHg 51%
    18:00 +22°C° 0 mm 3 mps 718 mmHg 59%
    19:00 +20°C° 0 mm 3 mps 718 mmHg 66%
    20:00 +19°C° 0 mm 3 mps 718 mmHg 74%
    21:00 +18°C° 0 mm 4 mps 718 mmHg 77%
    22:00 +17°C° 0 mm 4 mps 718 mmHg 81%
    23:00 +15°C° 0 mm 5 mps 719 mmHg 84%
    Show more